Torna al catalogo

FENGYUN 3E

AttivoMeteoSSO
NORAD 49008·PAYLOAD·🇨🇳 China

Lanciato Jul 4, 2021 da Jiuquan Satellite Launch Center

Loading…

Prossimi Passaggi (prossime 24 ore)

TLE

AggiornatoSource: Space-Track

Epoca: Sep 14, 2026, 14:58 UTC

1 49008U 21062A   26257.62402089  .00000150  00000-0  91356-4 0  9999
2 49008  98.7542 260.0549 0001646 151.1302 208.9965 14.19911502269272

Traccia FENGYUN 3E in tempo reale con AllMySat

Download on the App Store